{"data":{"norad_id":62174,"epoch":"2026-05-24T23:12:35.934048Z","epoch_age_seconds":88180,"freshness":"FRESH","line1":"1 62174U 24225M   26144.96708257  .00029627  00000+0  24750-2 0  9991","line2":"2 62174  70.0011 332.0155 0002892 272.2667  87.8161 14.98412950 81309","mean_motion":14.9841295,"eccentricity":0.0002892,"inclination_deg":70.0011,"raan_deg":332.0155,"arg_perigee_deg":272.2667,"mean_anomaly_deg":87.8161,"bstar":0.002475,"rev_number":8130,"period_min":96.101678779538,"perigee_km":569.78946514265,"apogee_km":573.80930834874,"semimajor_km":6949.9363867457,"source":"CELESTRAK","updated_at":"2026-05-25T13:38:19.602810Z"}}